User: anonymous   Login
Location: Unspecified
(0.0000°N, 0.0000°E)
Time: 18:47:34
(UTC+00:00)
Language:

Tiros 1 - Orbit

View from above orbital plane
View from above orbital plane
View from above satellite
View from above satellite

Ground track
Ground track

The orbit data is extracted from the following two-line orbital elements,

1 00029U 60002B   16121.13218995  .00000017  00000-0  33665-4 0  9993
2 00029  48.3799 230.1546 0024778 256.6124 103.2025 14.74048285995962
Epoch (UTC): 30 April 2016 03:10:21
Eccentricity: 0.0024778
inclination: 48.3799°
perigee height: 631 km
apogee height: 665 km
right ascension of ascending node: 230.1546°
argument of perigee: 256.6124°
revolutions per day: 14.74048285
mean anomaly at epoch: 103.2025°
orbit number at epoch: 99596

The dashed part of the orbit path shows where the satellite is in the earth's shadow,  

DLR